| time (UTC) | temp F | wind direction | speed MPH | gust MPH | rain 1hr in | rain 24hr in | rain mn in | humidity % | barometer mb |
| 20260902170517 | 59 | 319 | 0.0 | 0.0 | 0.00 | 0.00 | 0.00 | 34 | 1021.6 |
| 20260902170015 | 59 | 323 | 0.0 | 0.0 | 0.00 | 0.00 | 0.00 | 34 | 1021.5 |
| 20260902165513 | 58 | 301 | 0.0 | 0.0 | 0.00 | 0.00 | 0.00 | 34 | 1021.4 |
| 20260902165012 | 58 | 306 | 0.0 | 1.0 | 0.00 | 0.00 | 0.00 | 34 | 1021.3 |
| 20260902164521 | 58 | 285 | 0.0 | 1.0 | 0.00 | 0.00 | 0.00 | 34 | 1021.3 |
| 20260902164010 | 58 | 311 | 0.0 | 0.0 | 0.00 | 0.00 | 0.00 | 34 | 1021.3 |
| 20260902163512 | 58 | 293 | 0.0 | 4.0 | 0.00 | 0.00 | 0.00 | 34 | 1021.2 |
| 20260902163010 | 58 | 327 | 0.0 | 4.0 | 0.00 | 0.00 | 0.00 | 34 | 1021.2 |
| 20260902162509 | 58 | 323 | 0.0 | 2.0 | 0.00 | 0.00 | 0.00 | 34 | 1021.1 |
| 20260902162009 | 58 | 338 | 0.0 | 2.0 | 0.00 | 0.00 | 0.00 | 34 | 1021.0 |
| 20260902161521 | 58 | 347 | 0.0 | 2.0 | 0.00 | 0.00 | 0.00 | 34 | 1021.0 |
| 20260902161009 | 58 | 346 | 0.0 | 0.0 | 0.00 | 0.00 | 0.00 | 34 | 1021.0 |
| 20260902160511 | 58 | 330 | 0.0 | 0.0 | 0.00 | 0.00 | 0.00 | 35 | 1021.2 |
| 20260902160009 | 58 | 5 | 0.0 | 2.0 | 0.00 | 0.00 | 0.00 | 35 | 1021.2 |
| 20260902155508 | 58 | 350 | 0.0 | 2.0 | 0.00 | 0.00 | 0.00 | 36 | 1021.2 |
| 20260902155009 | 57 | 5 | 0.0 | 4.0 | 0.00 | 0.00 | 0.00 | 35 | 1021.2 |
| 20260902154514 | 57 | 348 | 1.0 | 7.0 | 0.00 | 0.00 | 0.00 | 35 | 1021.1 |
| 20260902154006 | 57 | 342 | 0.0 | 9.0 | 0.00 | 0.00 | 0.00 | 36 | 1021.2 |
| 20260902153506 | 57 | 306 | 0.0 | 5.0 | 0.00 | 0.00 | 0.00 | 36 | 1021.2 |
| 20260902153006 | 57 | 304 | 0.0 | 5.0 | 0.00 | 0.00 | 0.00 | 36 | 1021.2 |
| 20260902152505 | 57 | 292 | 0.0 | 7.0 | 0.00 | 0.00 | 0.00 | 36 | 1021.2 |
| 20260902152006 | 56 | 271 | 2.0 | 7.0 | 0.00 | 0.00 | 0.00 | 36 | 1021.2 |
| 20260902151504 | 56 | 297 | 0.0 | 9.0 | 0.00 | 0.00 | 0.00 | 36 | 1021.1 |
| 20260902151004 | 56 | 286 | 2.0 | 9.0 | 0.00 | 0.00 | 0.00 | 36 | 1021.1 |
| 20260902150505 | 56 | 319 | 0.0 | 3.0 | 0.00 | 0.00 | 0.00 | 37 | 1021.0 |
| 20260902150002 | 56 | 9 | 0.0 | 5.0 | 0.00 | 0.00 | 0.00 | 37 | 1020.9 |
| 20260902145502 | 56 | 5 | 0.0 | 5.0 | 0.00 | 0.00 | 0.00 | 36 | 1020.9 |
| 20260902145001 | 56 | 23 | 0.0 | 7.0 | 0.00 | 0.00 | 0.00 | 36 | 1020.8 |
| 20260902144602 | 56 | 5 | 1.0 | 10.0 | 0.00 | 0.00 | 0.00 | 36 | 1020.7 |
| 20260902144059 | 56 | 340 | 4.0 | 11.0 | 0.00 | 0.00 | 0.00 | 36 | 1020.5 |
| 20260902143601 | 56 | 277 | 4.0 | 11.0 | 0.00 | 0.00 | 0.00 | 36 | 1020.4 |
| 20260902143059 | 56 | 288 | 1.0 | 10.0 | 0.00 | 0.00 | 0.00 | 36 | 1020.4 |
| 20260902142558 | 56 | 279 | 1.0 | 11.0 | 0.00 | 0.00 | 0.00 | 36 | 1020.5 |
| 20260902142058 | 56 | 300 | 5.0 | 12.0 | 0.00 | 0.00 | 0.00 | 35 | 1020.4 |
| 20260902141557 | 56 | 278 | 6.0 | 12.0 | 0.00 | 0.00 | 0.00 | 35 | 1020.2 |
| 20260902141059 | 55 | 292 | 4.0 | 9.0 | 0.00 | 0.00 | 0.00 | 36 | 1020.2 |
| 20260902140600 | 55 | 251 | 2.0 | 8.0 | 0.00 | 0.00 | 0.00 | 36 | 1020.2 |
| 20260902140106 | 54 | 244 | 1.0 | 4.0 | 0.00 | 0.00 | 0.00 | 36 | 1020.2 |
| 20260902135556 | 53 | 350 | 0.0 | 0.0 | 0.00 | 0.00 | 0.00 | 37 | 1020.1 |
| 20260902135055 | 53 | 45 | 0.0 | 2.0 | 0.00 | 0.00 | 0.00 | 37 | 1020.3 |
| 20260902134555 | 54 | 53 | 0.0 | 5.0 | 0.00 | 0.00 | 0.00 | 36 | 1020.1 |
| 20260902134053 | 54 | 39 | 1.0 | 4.0 | 0.00 | 0.00 | 0.00 | 36 | 1020.0 |
| 20260902133553 | 54 | 105 | 0.0 | 1.0 | 0.00 | 0.00 | 0.00 | 34 | 1019.8 |
| 20260902133102 | 54 | 227 | 0.0 | 0.0 | 0.00 | 0.00 | 0.00 | 34 | 1019.7 |
| 20260902132552 | 55 | 297 | 0.0 | 8.0 | 0.00 | 0.00 | 0.00 | 34 | 1019.7 |
| 20260902132052 | 55 | 282 | 1.0 | 8.0 | 0.00 | 0.00 | 0.00 | 35 | 1019.7 |
| 20260902131559 | 54 | 275 | 0.0 | 8.0 | 0.00 | 0.00 | 0.00 | 35 | 1019.6 |
| 20260902131055 | 54 | 265 | 3.0 | 8.0 | 0.00 | 0.00 | 0.00 | 35 | 1019.5 |
| 20260902130552 | 53 | 288 | 3.0 | 8.0 | 0.00 | 0.00 | 0.00 | 36 | 1019.4 |
| 20260902130052 | 53 | 242 | 1.0 | 6.0 | 0.00 | 0.00 | 0.00 | 36 | 1019.5 |
| 20260902125549 | 53 | 250 | 0.0 | 1.0 | 0.00 | 0.00 | 0.00 | 36 | 1019.5 |
| 20260902125049 | 54 | 74 | 0.0 | 2.0 | 0.00 | 0.00 | 0.00 | 35 | 1019.7 |
| 20260902124551 | 55 | 74 | 0.0 | 2.0 | 0.00 | 0.00 | 0.00 | 34 | 1019.6 |
| 20260902124047 | 55 | 39 | 0.0 | 7.0 | 0.00 | 0.00 | 0.00 | 32 | 1019.5 |
| 20260902123547 | 56 | 279 | 0.0 | 10.0 | 0.00 | 0.00 | 0.00 | 32 | 1019.2 |
| 20260902123048 | 56 | 305 | 5.0 | 11.0 | 0.00 | 0.00 | 0.00 | 32 | 1019.1 |
| 20260902122548 | 56 | 271 | 7.0 | 12.0 | 0.00 | 0.00 | 0.00 | 32 | 1019.1 |
| 20260902122047 | 56 | 272 | 8.0 | 12.0 | 0.00 | 0.00 | 0.00 | 32 | 1019.1 |
| 20260902121558 | 56 | 264 | 8.0 | 12.0 | 0.00 | 0.00 | 0.00 | 32 | 1019.2 |
| 20260902121047 | 55 | 274 | 6.0 | 11.0 | 0.00 | 0.00 | 0.00 | 31 | 1019.2 |
| 20260902120549 | 55 | 273 | 6.0 | 13.0 | 0.00 | 0.00 | 0.00 | 32 | 1019.2 |
| 20260902120047 | 54 | 269 | 8.0 | 13.0 | 0.00 | 0.00 | 0.00 | 31 | 1019.2 |
| 20260902115547 | 54 | 277 | 8.0 | 11.0 | 0.00 | 0.00 | 0.00 | 31 | 1019.2 |
| 20260902115044 | 54 | 265 | 6.0 | 9.0 | 0.00 | 0.00 | 0.00 | 31 | 1019.3 |
| 20260902114550 | 54 | 268 | 0.0 | 5.0 | 0.00 | 0.00 | 0.00 | 32 | 1019.5 |
| 20260902114042 | 54 | 25 | 0.0 | 5.0 | 0.00 | 0.00 | 0.00 | 31 | 1019.6 |
| 20260902113541 | 55 | 19 | 2.0 | 4.0 | 0.00 | 0.00 | 0.00 | 30 | 1019.4 |
| 20260902113052 | 56 | 42 | 1.0 | 4.0 | 0.00 | 0.00 | 0.00 | 29 | 1019.3 |
| 20260902112539 | 56 | 52 | 0.0 | 16.0 | 0.00 | 0.00 | 0.00 | 27 | 1019.1 |
| 20260902112038 | 57 | 288 | 9.0 | 16.0 | 0.00 | 0.00 | 0.00 | 28 | 1018.8 |
| 20260902111538 | 57 | 276 | 11.0 | 16.0 | 0.00 | 0.00 | 0.00 | 27 | 1018.5 |
| 20260902111036 | 57 | 271 | 9.0 | 14.0 | 0.00 | 0.00 | 0.00 | 27 | 1018.6 |
| 20260902110535 | 56 | 251 | 7.0 | 12.0 | 0.00 | 0.00 | 0.00 | 27 | 1018.6 |
| 20260902110034 | 54 | 261 | 5.0 | 9.0 | 0.00 | 0.00 | 0.00 | 27 | 1018.8 |
| 20260902105534 | 54 | 234 | 2.0 | 4.0 | 0.00 | 0.00 | 0.00 | 27 | 1018.9 |
| 20260902105032 | 56 | 275 | 0.0 | 1.0 | 0.00 | 0.00 | 0.00 | 26 | 1018.8 |
| 20260902104544 | 57 | 285 | 0.0 | 1.0 | 0.00 | 0.00 | 0.00 | 26 | 1018.9 |
| 20260902104031 | 58 | 285 | 0.0 | 1.0 | 0.00 | 0.00 | 0.00 | 25 | 1018.8 |
| 20260902103530 | 58 | 285 | 0.0 | 5.0 | 0.00 | 0.00 | 0.00 | 25 | 1018.8 |
| 20260902103031 | 57 | 9 | 0.0 | 8.0 | 0.00 | 0.00 | 0.00 | 26 | 1018.7 |
| 20260902102531 | 57 | 271 | 1.0 | 8.0 | 0.00 | 0.00 | 0.00 | 26 | 1018.6 |
| 20260902102030 | 57 | 242 | 2.0 | 7.0 | 0.00 | 0.00 | 0.00 | 26 | 1018.4 |
| 20260902101536 | 57 | 227 | 1.0 | 6.0 | 0.00 | 0.00 | 0.00 | 26 | 1018.3 |
| 20260902101029 | 57 | 178 | 1.0 | 6.0 | 0.00 | 0.00 | 0.00 | 27 | 1018.1 |
| 20260902100531 | 57 | 205 | 0.0 | 8.0 | 0.00 | 0.00 | 0.00 | 27 | 1018.2 |
| 20260902100029 | 56 | 253 | 1.0 | 8.0 | 0.00 | 0.00 | 0.00 | 27 | 1018.4 |
| 20260902095528 | 56 | 218 | 0.0 | 1.0 | 0.00 | 0.00 | 0.00 | 28 | 1018.6 |
| 20260902095026 | 57 | 298 | 0.0 | 1.0 | 0.00 | 0.00 | 0.00 | 28 | 1018.7 |
| 20260902094524 | 58 | 329 | 0.0 | 2.0 | 0.00 | 0.00 | 0.00 | 28 | 1018.8 |
| 20260902094023 | 59 | 345 | 0.0 | 9.0 | 0.00 | 0.00 | 0.00 | 27 | 1018.8 |
| 20260902093522 | 59 | 348 | 0.0 | 10.0 | 0.00 | 0.00 | 0.00 | 26 | 1018.8 |
| 20260902093025 | 59 | 277 | 2.0 | 13.0 | 0.00 | 0.00 | 0.00 | 26 | 1018.8 |
| 20260902092523 | 59 | 263 | 4.0 | 12.0 | 0.00 | 0.00 | 0.00 | 27 | 1018.6 |
| 20260902092020 | 59 | 238 | 3.0 | 13.0 | 0.00 | 0.00 | 0.00 | 26 | 1018.5 |
| 20260902091519 | 59 | 233 | 6.0 | 14.0 | 0.00 | 0.00 | 0.00 | 27 | 1018.4 |
| 20260902091018 | 59 | 236 | 5.0 | 15.0 | 0.00 | 0.00 | 0.00 | 27 | 1018.3 |
| 20260902090519 | 59 | 267 | 7.0 | 15.0 | 0.00 | 0.00 | 0.00 | 28 | 1018.2 |
| 20260902090017 | 60 | 225 | 7.0 | 15.0 | 0.00 | 0.00 | 0.00 | 28 | 1018.2 |
| 20260902085515 | 60 | 219 | 9.0 | 15.0 | 0.00 | 0.00 | 0.00 | 28 | 1018.1 |
| 20260902085014 | 60 | 200 | 9.0 | 21.0 | 0.00 | 0.00 | 0.00 | 28 | 1018.1 |
| 20260902084514 | 60 | 211 | 12.0 | 22.0 | 0.00 | 0.00 | 0.00 | 28 | 1017.9 |
| 20260902084013 | 60 | 209 | 13.0 | 21.0 | 0.00 | 0.00 | 0.00 | 28 | 1017.8 |
| 20260902083512 | 61 | 232 | 10.0 | 22.0 | 0.00 | 0.00 | 0.00 | 28 | 1017.9 |
| 20260902083011 | 61 | 199 | 11.0 | 22.0 | 0.00 | 0.00 | 0.00 | 27 | 1017.7 |
| 20260902082511 | 61 | 172 | 12.0 | 20.0 | 0.00 | 0.00 | 0.00 | 27 | 1017.6 |
| 20260902082009 | 61 | 192 | 12.0 | 21.0 | 0.00 | 0.00 | 0.00 | 27 | 1017.6 |
| 20260902081512 | 62 | 260 | 12.0 | 23.0 | 0.00 | 0.00 | 0.00 | 26 | 1017.6 |
| 20260902081007 | 62 | 228 | 10.0 | 21.0 | 0.00 | 0.00 | 0.00 | 24 | 1017.5 |
| 20260902080507 | 62 | 235 | 6.0 | 16.0 | 0.00 | 0.00 | 0.00 | 23 | 1017.5 |
| 20260902080005 | 62 | 246 | 10.0 | 20.0 | 0.00 | 0.00 | 0.00 | 22 | 1017.3 |
| 20260902075504 | 61 | 235 | 6.0 | 17.0 | 0.00 | 0.00 | 0.00 | 25 | 1017.2 |
| 20260902075002 | 61 | 190 | 6.0 | 17.0 | 0.00 | 0.00 | 0.00 | 27 | 1017.2 |
| 20260902074502 | 61 | 246 | 5.0 | 16.0 | 0.00 | 0.00 | 0.00 | 28 | 1017.2 |
| 20260902074002 | 61 | 250 | 8.0 | 15.0 | 0.00 | 0.00 | 0.00 | 28 | 1017.3 |
| 20260902073600 | 61 | 250 | 6.0 | 15.0 | 0.00 | 0.00 | 0.00 | 27 | 1017.3 |
| 20260902073100 | 61 | 227 | 10.0 | 16.0 | 0.00 | 0.00 | 0.00 | 27 | 1017.3 |
| 20260902072600 | 61 | 276 | 5.0 | 22.0 | 0.00 | 0.00 | 0.00 | 27 | 1017.4 |
| 20260902072058 | 61 | 219 | 10.0 | 22.0 | 0.00 | 0.00 | 0.00 | 26 | 1017.4 |
| 20260902071557 | 62 | 295 | 6.0 | 21.0 | 0.00 | 0.00 | 0.00 | 26 | 1017.2 |
| 20260902071058 | 62 | 269 | 7.0 | 21.0 | 0.00 | 0.00 | 0.00 | 26 | 1017.0 |
| 20260902070554 | 62 | 239 | 6.0 | 11.0 | 0.00 | 0.00 | 0.00 | 25 | 1017.0 |
| 20260902070052 | 62 | 247 | 5.0 | 15.0 | 0.00 | 0.00 | 0.00 | 25 | 1016.9 |
| 20260902065551 | 62 | 247 | 5.0 | 15.0 | 0.00 | 0.00 | 0.00 | 24 | 1016.9 |
| 20260902065051 | 62 | 240 | 6.0 | 16.0 | 0.00 | 0.00 | 0.00 | 24 | 1016.7 |
| 20260902064552 | 63 | 320 | 7.0 | 17.0 | 0.00 | 0.00 | 0.00 | 24 | 1016.8 |
| 20260902064050 | 63 | 296 | 6.0 | 19.0 | 0.00 | 0.00 | 0.00 | 24 | 1016.8 |
| 20260902063549 | 63 | 238 | 10.0 | 19.0 | 0.00 | 0.00 | 0.00 | 24 | 1016.6 |
| 20260902063048 | 63 | 262 | 7.0 | 22.0 | 0.00 | 0.00 | 0.00 | 23 | 1016.5 |
| 20260902062547 | 63 | 225 | 11.0 | 20.0 | 0.00 | 0.00 | 0.00 | 23 | 1016.2 |
| 20260902062046 | 63 | 238 | 11.0 | 22.0 | 0.00 | 0.00 | 0.00 | 24 | 1016.1 |
| 20260902061549 | 63 | 233 | 15.0 | 24.0 | 0.00 | 0.00 | 0.00 | 24 | 1015.9 |
| 20260902061044 | 64 | 235 | 14.0 | 24.0 | 0.00 | 0.00 | 0.00 | 24 | 1015.7 |
| 20260902060546 | 64 | 192 | 14.0 | 27.0 | 0.00 | 0.00 | 0.00 | 24 | 1015.4 |
| 20260902060042 | 64 | 223 | 15.0 | 25.0 | 0.00 | 0.00 | 0.00 | 23 | 1015.2 |
| 20260902055541 | 64 | 191 | 17.0 | 32.0 | 0.00 | 0.00 | 0.00 | 23 | 1015.0 |
| 20260902055040 | 64 | 247 | 17.0 | 32.0 | 0.00 | 0.00 | 0.00 | 23 | 1014.9 |
| 20260902054542 | 64 | 188 | 17.0 | 30.0 | 0.00 | 0.00 | 0.00 | 23 | 1014.9 |
| 20260902054040 | 65 | 192 | 17.0 | 27.0 | 0.00 | 0.00 | 0.00 | 22 | 1014.9 |
| 20260902053540 | 64 | 209 | 16.0 | 28.0 | 0.00 | 0.00 | 0.00 | 22 | 1014.8 |
| 20260902053040 | 64 | 187 | 14.0 | 24.0 | 0.00 | 0.00 | 0.00 | 23 | 1014.7 |
| 20260902052540 | 65 | 221 | 12.0 | 25.0 | 0.00 | 0.00 | 0.00 | 23 | 1014.7 |
| 20260902052039 | 65 | 233 | 16.0 | 26.0 | 0.00 | 0.00 | 0.00 | 22 | 1014.6 |
| 20260902051538 | 65 | 200 | 18.0 | 29.0 | 0.00 | 0.00 | 0.00 | 22 | 1014.7 |
| 20260902051038 | 65 | 206 | 18.0 | 29.0 | 0.00 | 0.00 | 0.00 | 22 | 1014.6 |
| 20260902050540 | 65 | 226 | 16.0 | 32.0 | 0.00 | 0.00 | 0.00 | 21 | 1014.5 |
| 20260902050038 | 65 | 206 | 17.0 | 32.0 | 0.00 | 0.00 | 0.00 | 21 | 1014.4 |
| 20260902045536 | 65 | 207 | 17.0 | 30.0 | 0.00 | 0.00 | 0.00 | 21 | 1014.3 |
| 20260902045041 | 66 | 209 | 19.0 | 30.0 | 0.00 | 0.00 | 0.00 | 21 | 1014.1 |
| 20260902044541 | 66 | 195 | 20.0 | 28.0 | 0.00 | 0.00 | 0.00 | 20 | 1014.1 |
| 20260902044039 | 66 | 196 | 17.0 | 28.0 | 0.00 | 0.00 | 0.00 | 20 | 1014.0 |
| 20260902043538 | 66 | 238 | 17.0 | 30.0 | 0.00 | 0.00 | 0.00 | 20 | 1014.0 |
| 20260902043043 | 66 | 192 | 18.0 | 29.0 | 0.00 | 0.00 | 0.00 | 20 | 1013.8 |
| 20260902042538 | 66 | 216 | 18.0 | 30.0 | 0.00 | 0.00 | 0.00 | 20 | 1014.2 |
| 20260902042035 | 66 | 278 | 20.0 | 34.0 | 0.00 | 0.00 | 0.00 | 19 | 1013.7 |
| 20260902041534 | 67 | 248 | 18.0 | 32.0 | 0.00 | 0.00 | 0.00 | 19 | 1013.7 |
| 20260902041034 | 67 | 228 | 18.0 | 32.0 | 0.00 | 0.00 | 0.00 | 19 | 1014.0 |
| 20260902040532 | 67 | 197 | 16.0 | 29.0 | 0.00 | 0.00 | 0.00 | 19 | 1013.9 |
| 20260902040032 | 67 | 192 | 15.0 | 29.0 | 0.00 | 0.00 | 0.00 | 19 | 1013.8 |
| 20260902035529 | 67 | 221 | 18.0 | 27.0 | 0.00 | 0.00 | 0.00 | 19 | 1013.7 |
| 20260902035029 | 67 | 207 | 13.0 | 29.0 | 0.00 | 0.00 | 0.00 | 18 | 1013.7 |
| 20260902034529 | 67 | 227 | 14.0 | 28.0 | 0.00 | 0.00 | 0.00 | 18 | 1013.7 |
| 20260902034028 | 67 | 230 | 15.0 | 28.0 | 0.00 | 0.00 | 0.00 | 19 | 1013.9 |
| 20260902033526 | 68 | 263 | 11.0 | 26.0 | 0.00 | 0.00 | 0.00 | 19 | 1014.0 |
| 20260902033027 | 68 | 211 | 14.0 | 26.0 | 0.00 | 0.00 | 0.00 | 18 | 1013.9 |
| 20260902032525 | 68 | 225 | 7.0 | 19.0 | 0.00 | 0.00 | 0.00 | 18 | 1013.9 |
| 20260902032026 | 68 | 254 | 8.0 | 20.0 | 0.00 | 0.00 | 0.00 | 17 | 1013.9 |
| 20260902031535 | 68 | 243 | 11.0 | 25.0 | 0.00 | 0.00 | 0.00 | 17 | 1013.9 |
| 20260902031029 | 69 | 246 | 10.0 | 25.0 | 0.00 | 0.00 | 0.00 | 17 | 1013.6 |
| 20260902030524 | 69 | 224 | 12.0 | 29.0 | 0.00 | 0.00 | 0.00 | 18 | 1013.6 |
| 20260902030028 | 69 | 215 | 14.0 | 27.0 | 0.00 | 0.00 | 0.00 | 18 | 1013.4 |
| 20260902025523 | 69 | 198 | 9.0 | 25.0 | 0.00 | 0.00 | 0.00 | 18 | 1013.3 |
| 20260902025022 | 69 | 229 | 13.0 | 24.0 | 0.00 | 0.00 | 0.00 | 17 | 1013.4 |
| 20260902024522 | 69 | 243 | 12.0 | 28.0 | 0.00 | 0.00 | 0.00 | 18 | 1013.2 |
| 20260902024021 | 69 | 231 | 15.0 | 28.0 | 0.00 | 0.00 | 0.00 | 18 | 1013.4 |
| 20260902023522 | 70 | 200 | 9.0 | 23.0 | 0.00 | 0.00 | 0.00 | 17 | 1013.3 |
| 20260902023030 | 70 | 211 | 14.0 | 23.0 | 0.00 | 0.00 | 0.00 | 17 | 1013.3 |
| 20260902022522 | 70 | 248 | 10.0 | 22.0 | 0.00 | 0.00 | 0.00 | 17 | 1013.1 |
| 20260902022029 | 70 | 244 | 14.0 | 23.0 | 0.00 | 0.00 | 0.00 | 17 | 1013.1 |
| 20260902021520 | 71 | 178 | 13.0 | 25.0 | 0.00 | 0.00 | 0.00 | 16 | 1012.9 |
| 20260902021020 | 71 | 198 | 15.0 | 25.0 | 0.00 | 0.00 | 0.00 | 17 | 1012.9 |
| 20260902020520 | 71 | 191 | 15.0 | 23.0 | 0.00 | 0.00 | 0.00 | 16 | 1012.9 |
| 20260902020025 | 72 | 259 | 14.0 | 29.0 | 0.00 | 0.00 | 0.00 | 16 | 1012.9 |
| 20260902015519 | 72 | 173 | 14.0 | 26.0 | 0.00 | 0.00 | 0.00 | 16 | 1012.8 |
| 20260902015019 | 72 | 218 | 17.0 | 26.0 | 0.00 | 0.00 | 0.00 | 15 | 1012.4 |
| 20260902014522 | 72 | 252 | 15.0 | 30.0 | 0.00 | 0.00 | 0.00 | 16 | 1012.8 |
| 20260902014019 | 72 | 165 | 15.0 | 30.0 | 0.00 | 0.00 | 0.00 | 15 | 1012.6 |
| 20260902013522 | 73 | 232 | 16.0 | 30.0 | 0.00 | 0.00 | 0.00 | 15 | 1012.5 |
| 20260902013019 | 73 | 232 | 16.0 | 30.0 | 0.00 | 0.00 | 0.00 | 15 | 1012.6 |
| 20260902012519 | 74 | 175 | 16.0 | 30.0 | 0.00 | 0.00 | 0.00 | 15 | 1012.5 |
| 20260902012118 | 74 | 236 | 15.0 | 30.0 | 0.00 | 0.00 | 0.00 | 15 | 1012.5 |
| 20260902011518 | 74 | 246 | 16.0 | 28.0 | 0.00 | 0.00 | 0.00 | 15 | 1012.7 |
| 20260902011018 | 74 | 170 | 14.0 | 28.0 | 0.00 | 0.00 | 0.00 | 15 | 1012.8 |
| 20260902010518 | 74 | 246 | 15.0 | 25.0 | 0.00 | 0.00 | 0.00 | 15 | 1012.8 |
| 20260902010024 | 75 | 242 | 12.0 | 23.0 | 0.00 | 0.00 | 0.00 | 15 | 1012.8 |
| 20260902005519 | 75 | 198 | 12.0 | 21.0 | 0.00 | 0.00 | 0.00 | 15 | 1012.7 |
| 20260902005016 | 76 | 246 | 9.0 | 23.0 | 0.00 | 0.00 | 0.00 | 15 | 1012.6 |
| 20260902004520 | 77 | 180 | 15.0 | 25.0 | 0.00 | 0.00 | 0.00 | 15 | 1012.6 |
| 20260902004018 | 77 | 198 | 12.0 | 28.0 | 0.00 | 0.00 | 0.00 | 14 | 1012.6 |
| 20260902003515 | 77 | 251 | 12.0 | 27.0 | 0.00 | 0.00 | 0.00 | 14 | 1012.7 |
| 20260902003016 | 77 | 225 | 13.0 | 27.0 | 0.00 | 0.00 | 0.00 | 14 | 1012.8 |
| 20260902002516 | 77 | 189 | 15.0 | 27.0 | 0.00 | 0.00 | 0.00 | 15 | 1012.6 |
| 20260902002015 | 77 | 213 | 13.0 | 22.0 | 0.00 | 0.00 | 0.00 | 15 | 1012.7 |
| 20260902001516 | 77 | 224 | 12.0 | 25.0 | 0.00 | 0.00 | 0.00 | 15 | 1012.7 |
| 20260902001015 | 77 | 254 | 12.0 | 22.0 | 0.00 | 0.00 | 0.00 | 14 | 1012.7 |
| 20260902000514 | 77 | 240 | 15.0 | 21.0 | 0.00 | 0.00 | 0.00 | 14 | 1012.7 |
| 20260902000014 | 78 | 237 | 11.0 | 24.0 | 0.00 | 0.00 | 0.00 | 14 | 1012.6 |
| 20260901235514 | 78 | 198 | 13.0 | 28.0 | 0.00 | 0.00 | 0.00 | 13 | 1012.7 |
| 20260901235013 | 78 | 188 | 14.0 | 28.0 | 0.00 | 0.00 | 0.00 | 13 | 1012.5 |
| 20260901234514 | 78 | 208 | 12.0 | 21.0 | 0.00 | 0.00 | 0.00 | 13 | 1012.6 |
| 20260901234013 | 79 | 198 | 10.0 | 20.0 | 0.00 | 0.00 | 0.00 | 12 | 1012.7 |
| 20260901233519 | 79 | 198 | 10.0 | 18.0 | 0.00 | 0.00 | 0.00 | 12 | 1012.7 |
| 20260901233013 | 79 | 190 | 10.0 | 18.0 | 0.00 | 0.00 | 0.00 | 12 | 1012.8 |
| 20260901232513 | 79 | 222 | 11.0 | 18.0 | 0.00 | 0.00 | 0.00 | 12 | 1012.8 |
| 20260901232013 | 79 | 244 | 11.0 | 18.0 | 0.00 | 0.00 | 0.00 | 12 | 1012.7 |
| 20260901231513 | 79 | 202 | 7.0 | 18.0 | 0.00 | 0.00 | 0.00 | 12 | 1012.7 |
| 20260901231012 | 79 | 229 | 10.0 | 23.0 | 0.00 | 0.00 | 0.00 | 12 | 1012.7 |
| 20260901230512 | 79 | 288 | 11.0 | 23.0 | 0.00 | 0.00 | 0.00 | 12 | 1012.6 |
| 20260901230012 | 79 | 273 | 11.0 | 20.0 | 0.00 | 0.00 | 0.00 | 12 | 1012.6 |
| 20260901225511 | 80 | 271 | 9.0 | 23.0 | 0.00 | 0.00 | 0.00 | 12 | 1012.6 |
| 20260901225011 | 80 | 209 | 9.0 | 23.0 | 0.00 | 0.00 | 0.00 | 12 | 1012.7 |
| 20260901224522 | 80 | 219 | 10.0 | 25.0 | 0.00 | 0.00 | 0.00 | 12 | 1012.5 |
| 20260901224013 | 80 | 236 | 9.0 | 25.0 | 0.00 | 0.00 | 0.00 | 12 | 1012.5 |
| 20260901223510 | 80 | 236 | 10.0 | 21.0 | 0.00 | 0.00 | 0.00 | 12 | 1012.3 |
| 20260901223011 | 81 | 263 | 9.0 | 21.0 | 0.00 | 0.00 | 0.00 | 11 | 1012.3 |
| 20260901222510 | 81 | 254 | 8.0 | 18.0 | 0.00 | 0.00 | 0.00 | 12 | 1012.3 |
| 20260901222010 | 82 | 277 | 11.0 | 19.0 | 0.00 | 0.00 | 0.00 | 12 | 1012.3 |
| 20260901221533 | 82 | 214 | 9.0 | 19.0 | 0.00 | 0.00 | 0.00 | 12 | 1012.2 |
| 20260901221011 | 82 | 219 | 9.0 | 17.0 | 0.00 | 0.00 | 0.00 | 12 | 1012.3 |
| 20260901220509 | 82 | 197 | 6.0 | 18.0 | 0.00 | 0.00 | 0.00 | 12 | 1012.3 |
| 20260901220010 | 83 | 196 | 11.0 | 18.0 | 0.00 | 0.00 | 0.00 | 11 | 1012.3 |
| 20260901215509 | 83 | 233 | 10.0 | 19.0 | 0.00 | 0.00 | 0.00 | 9 | 1012.3 |
| 20260901215008 | 83 | 279 | 6.0 | 19.0 | 0.00 | 0.00 | 0.00 | 10 | 1012.4 |
| 20260901214507 | 83 | 218 | 6.0 | 20.0 | 0.00 | 0.00 | 0.00 | 9 | 1012.4 |
| 20260901214011 | 83 | 233 | 8.0 | 17.0 | 0.00 | 0.00 | 0.00 | 9 | 1012.5 |
| 20260901213506 | 84 | 194 | 5.0 | 17.0 | 0.00 | 0.00 | 0.00 | 9 | 1012.5 |
| 20260901213012 | 83 | 173 | 4.0 | 13.0 | 0.00 | 0.00 | 0.00 | 9 | 1012.6 |
| 20260901212505 | 83 | 306 | 6.0 | 13.0 | 0.00 | 0.00 | 0.00 | 9 | 1012.7 |
| 20260901212005 | 84 | 161 | 3.0 | 8.0 | 0.00 | 0.00 | 0.00 | 10 | 1012.8 |
| 20260901211511 | 84 | 166 | 3.0 | 10.0 | 0.00 | 0.00 | 0.00 | 10 | 1012.9 |
| 20260901211004 | 84 | 120 | 5.0 | 12.0 | 0.00 | 0.00 | 0.00 | 10 | 1013.0 |
| 20260901210504 | 84 | 70 | 8.0 | 18.0 | 0.00 | 0.00 | 0.00 | 9 | 1013.0 |
| 20260901210003 | 83 | 148 | 8.0 | 18.0 | 0.00 | 0.00 | 0.00 | 10 | 1013.0 |
| 20260901205502 | 83 | 157 | 2.0 | 12.0 | 0.00 | 0.00 | 0.00 | 10 | 1013.0 |
| 20260901205003 | 83 | 182 | 4.0 | 12.0 | 0.00 | 0.00 | 0.00 | 10 | 1013.1 |
| 20260901204503 | 84 | 202 | 3.0 | 8.0 | 0.00 | 0.00 | 0.00 | 10 | 1013.2 |
| 20260901204003 | 83 | 44 | 0.0 | 8.0 | 0.00 | 0.00 | 0.00 | 11 | 1013.2 |
| 20260901203603 | 82 | 257 | 3.0 | 12.0 | 0.00 | 0.00 | 0.00 | 11 | 1013.3 |
| 20260901203102 | 82 | 156 | 7.0 | 15.0 | 0.00 | 0.00 | 0.00 | 11 | 1013.4 |
| 20260901202559 | 84 | 237 | 5.0 | 15.0 | 0.00 | 0.00 | 0.00 | 11 | 1013.5 |
| 20260901202100 | 84 | 84 | 4.0 | 11.0 | 0.00 | 0.00 | 0.00 | 11 | 1013.5 |
| 20260901201559 | 82 | 136 | 1.0 | 15.0 | 0.00 | 0.00 | 0.00 | 11 | 1013.6 |
| 20260901201056 | 82 | 150 | 9.0 | 15.0 | 0.00 | 0.00 | 0.00 | 11 | 1013.7 |
| 20260901200556 | 81 | 177 | 9.0 | 15.0 | 0.00 | 0.00 | 0.00 | 12 | 1013.7 |
| 20260901200116 | 81 | 150 | 0.0 | 10.0 | 0.00 | 0.00 | 0.00 | 12 | 1013.8 |
| 20260901195555 | 82 | 201 | 5.0 | 11.0 | 0.00 | 0.00 | 0.00 | 12 | 1013.9 |
| 20260901195056 | 82 | 191 | 2.0 | 11.0 | 0.00 | 0.00 | 0.00 | 12 | 1014.0 |
| 20260901194607 | 81 | 88 | 6.0 | 15.0 | 0.00 | 0.00 | 0.00 | 12 | 1014.0 |
| 20260901194056 | 80 | 162 | 9.0 | 15.0 | 0.00 | 0.00 | 0.00 | 12 | 1014.2 |
| 20260901193553 | 80 | 146 | 6.0 | 15.0 | 0.00 | 0.00 | 0.00 | 13 | 1014.2 |
| 20260901193054 | 80 | 132 | 8.0 | 15.0 | 0.00 | 0.00 | 0.00 | 13 | 1014.1 |
| 20260901192557 | 80 | 180 | 7.0 | 16.0 | 0.00 | 0.00 | 0.00 | 13 | 1014.1 |
| 20260901192051 | 79 | 181 | 6.0 | 17.0 | 0.00 | 0.00 | 0.00 | 13 | 1014.3 |
| 20260901191629 | 79 | 140 | 8.0 | 17.0 | 0.00 | 0.00 | 0.00 | 13 | 1014.2 |
| 20260901191054 | 78 | 216 | 5.0 | 17.0 | 0.00 | 0.00 | 0.00 | 13 | 1014.2 |
| 20260901190551 | 78 | 163 | 8.0 | 15.0 | 0.00 | 0.00 | 0.00 | 13 | 1014.3 |
| 20260901190059 | 79 | 194 | 9.0 | 17.0 | 0.00 | 0.00 | 0.00 | 13 | 1014.4 |
| 20260901185551 | 79 | 144 | 5.0 | 13.0 | 0.00 | 0.00 | 0.00 | 13 | 1014.3 |
| 20260901185050 | 79 | 186 | 6.0 | 13.0 | 0.00 | 0.00 | 0.00 | 13 | 1014.3 |
| 20260901184549 | 79 | 220 | 3.0 | 13.0 | 0.00 | 0.00 | 0.00 | 14 | 1014.3 |
| 20260901184050 | 79 | 108 | 7.0 | 16.0 | 0.00 | 0.00 | 0.00 | 14 | 1014.5 |
| 20260901183553 | 79 | 172 | 9.0 | 17.0 | 0.00 | 0.00 | 0.00 | 15 | 1014.3 |
| 20260901183054 | 79 | 211 | 7.0 | 12.0 | 0.00 | 0.00 | 0.00 | 15 | 1014.3 |
| 20260901182549 | 79 | 180 | 4.0 | 10.0 | 0.00 | 0.00 | 0.00 | 15 | 1014.4 |
| 20260901182049 | 80 | 271 | 1.0 | 14.0 | 0.00 | 0.00 | 0.00 | 14 | 1014.5 |
| 20260901181610 | 80 | 76 | 3.0 | 14.0 | 0.00 | 0.00 | 0.00 | 15 | 1014.5 |
| 20260901181053 | 80 | 142 | 3.0 | 10.0 | 0.00 | 0.00 | 0.00 | 15 | 1014.5 |
| 20260901180549 | 80 | 178 | 5.0 | 10.0 | 0.00 | 0.00 | 0.00 | 15 | 1014.6 |
| 20260901180048 | 80 | 84 | 2.0 | 6.0 | 0.00 | 0.00 | 0.00 | 15 | 1014.6 |
| 20260901175546 | 78 | 338 | 0.0 | 7.0 | 0.00 | 0.00 | 0.00 | 16 | 1014.7 |
| 20260901175049 | 76 | 65 | 3.0 | 12.0 | 0.00 | 0.00 | 0.00 | 16 | 1014.7 |
| 20260901174546 | 76 | 250 | 6.0 | 14.0 | 0.00 | 0.00 | 0.00 | 16 | 1014.7 |
| 20260901174049 | 77 | 273 | 7.0 | 12.0 | 0.00 | 0.00 | 0.00 | 16 | 1014.7 |
| 20260901173549 | 77 | 216 | 3.0 | 9.0 | 0.00 | 0.00 | 0.00 | 16 | 1014.8 |
| 20260901173045 | 78 | 350 | 3.0 | 11.0 | 0.00 | 0.00 | 0.00 | 16 | 1014.8 |
| 20260901172547 | 78 | 311 | 3.0 | 8.0 | 0.00 | 0.00 | 0.00 | 15 | 1014.7 |
| 20260901172044 | 77 | 291 | 1.0 | 8.0 | 0.00 | 0.00 | 0.00 | 16 | 1014.6 |
| 20260901171543 | 76 | 5 | 1.0 | 8.0 | 0.00 | 0.00 | 0.00 | 16 | 1014.7 |
| 20260901171041 | 75 | 355 | 3.0 | 10.0 | 0.00 | 0.00 | 0.00 | 16 | 1014.7 |